Погода в Александровке

Украина / Николаевская область     47°27′43″N   30°55′29″E
темп.,
°C
ветер,
м/с
пор.,
м/с
влажн.,
%
обл.,
%
осадки,
мм/ч
давл.,
гПа
погр.,
м
25 февраля, чт
чт2523:000ююз3691100 0.0 1035266
02:000ююз3692100 0.0 1034247
05:00+1юз3697100 0.0 1033158
08:00+2зюз3599100 0.1 1033105
11:00+4зсз2399100 0.0 1033101
14:00+4з3399100 0.0 103272
17:00+4з3699100 0.0 103098
20:00+4зсз3699100 0.0 1030101
26 февраля, пт
пт2623:00+3зсз3499100 0.0 103081
02:00+3зсз3499100 0.0 102972
05:00+3з239984 0.0 102823
08:00+3зюз229892 0.0 102736
11:00+6зюз349393 0.0 1026271
14:00+9з467873 0.0 1024301
17:00+8з35880 0.0 1022133
20:00+5зсз34900 0.0 102260
27 февраля, сб
сб2723:00+4зсз34890 0.0 102057
02:00+3зсз34910 0.0 101953
05:00+3зсз34940 0.0 101770
08:00+4сз6119428 0.0 1018350
11:00+6сз61078100 0.0 1018665
14:00+7сз71071100 0.1 10181123
17:00+5сз61069100 0.1 1018829
20:00+3зсз6128295 0.1 1018566
28 февраля, вс
вс2823:00+2сз5139241 0.0 1019513
02:00+1сз6128541 0.0 1020464
05:00+1ссз6119382 0.0 1021428
08:00+1ссз699691 0.1 1023515
11:00+2с698697 0.1 1024669
14:00+4ссз686796 0.2 10251153
17:00+3ссз6973100 0.1 1025916
20:00+1ссз5107898 0.1 1027550
1 марта, пн
пн123:000сз4898100 0.1 1027440
02:000сз4896100 0.2 1027351
05:000сз4991100 0.0 1027400
08:00+1ссз578196 0.1 1028582
11:00+3с566532 0.0 10291035
14:00+3с566663 0.1 10301052
17:00+3с4673100 0.1 1030839
20:00+2ссв2581100 0.1 1032261